• In Hungary
  • List of Countries
  • For 7 days
  • Water Temperature
  • Satellite Maps
  • Weather Map
  • News
  • Weather Widgets
  • user-avatar
    Login

    Hourly Weather Camargo

    Today, 21 January, Sunday

    Time Temperature Precipitation Wind Pressure Humidity
    00:00 +10°C° 0 mm 8 mps 759 mmHg 92%
    01:00 +10°C° 0.1 mm 8 mps 759 mmHg 93%
    02:00 +10°C° 0.1 mm 7 mps 759 mmHg 93%
    03:00 +10°C° 0.1 mm 7 mps 760 mmHg 94%
    04:00 +10°C° 0.1 mm 7 mps 760 mmHg 94%
    05:00 +10°C° 0.1 mm 6 mps 760 mmHg 94%
    06:00 +9°C° 0 mm 5 mps 760 mmHg 92%
    07:00 +10°C° 0.1 mm 5 mps 761 mmHg 92%
    08:00 +10°C° 0.1 mm 5 mps 761 mmHg 92%
    09:00 +10°C° 0.1 mm 5 mps 761 mmHg 92%
    10:00 +13°C° 0 mm 5 mps 761 mmHg 87%
    11:00 +15°C° 0 mm 5 mps 761 mmHg 83%
    12:00 +17°C° 0 mm 5 mps 761 mmHg 75%
    13:00 +17°C° 0 mm 5 mps 761 mmHg 76%
    14:00 +18°C° 0 mm 4 mps 761 mmHg 76%
    15:00 +18°C° 0 mm 4 mps 761 mmHg 77%
    16:00 +15°C° 0 mm 4 mps 761 mmHg 82%
    17:00 +14°C° 0 mm 3 mps 761 mmHg 88%
    18:00 +12°C° 0 mm 3 mps 761 mmHg 93%
    19:00 +12°C° 0 mm 3 mps 761 mmHg 93%
    20:00 +12°C° 0 mm 3 mps 761 mmHg 93%
    21:00 +11°C° 0 mm 3 mps 761 mmHg 93%
    22:00 +11°C° 0 mm 3 mps 761 mmHg 94%
    23:00 +11°C° 0 mm 3 mps 761 mmHg 94%

    Tomorrow, 22 January, Monday

    Time Temperature Precipitation Wind Pressure Humidity
    00:00 +11°C° 0 mm 3 mps 761 mmHg 94%
    01:00 +10°C° 0 mm 3 mps 761 mmHg 94%
    02:00 +10°C° 0 mm 3 mps 761 mmHg 94%
    03:00 +10°C° 0 mm 3 mps 761 mmHg 95%
    04:00 +10°C° 0 mm 4 mps 761 mmHg 94%
    05:00 +10°C° 0 mm 4 mps 761 mmHg 94%
    06:00 +10°C° 0 mm 4 mps 761 mmHg 94%
    07:00 +10°C° 0 mm 4 mps 761 mmHg 93%
    08:00 +11°C° 0 mm 4 mps 761 mmHg 92%
    09:00 +11°C° 0 mm 4 mps 761 mmHg 91%
    10:00 +13°C° 0 mm 5 mps 761 mmHg 85%
    11:00 +14°C° 0 mm 5 mps 761 mmHg 79%
    12:00 +16°C° 0 mm 5 mps 761 mmHg 73%
    13:00 +16°C° 0 mm 5 mps 761 mmHg 71%
    14:00 +17°C° 0 mm 5 mps 760 mmHg 70%
    15:00 +17°C° 0 mm 5 mps 760 mmHg 68%
    16:00 +15°C° 0 mm 4 mps 760 mmHg 74%
    17:00 +14°C° 0 mm 4 mps 761 mmHg 80%
    18:00 +12°C° 0 mm 3 mps 761 mmHg 86%
    19:00 +12°C° 0 mm 3 mps 761 mmHg 87%
    20:00 +12°C° 0 mm 3 mps 761 mmHg 87%
    21:00 +12°C° 0 mm 3 mps 761 mmHg 87%
    22:00 +12°C° 0 mm 3 mps 761 mmHg 87%
    23:00 +12°C° 0 mm 3 mps 761 mmHg 88%

    Day after tomorrow, 23 January, Tuesday

    Time Temperature Precipitation Wind Pressure Humidity
    00:00 +12°C° 0 mm 3 mps 761 mmHg 88%
    01:00 +12°C° 0 mm 3 mps 761 mmHg 89%
    02:00 +11°C° 0 mm 3 mps 761 mmHg 90%
    03:00 +11°C° 0 mm 3 mps 761 mmHg 92%
    04:00 +12°C° 0 mm 2 mps 761 mmHg 92%
    05:00 +10°C° 0 mm 2 mps 761 mmHg 92%
    06:00 +10°C° 0 mm 2 mps 761 mmHg 92%
    07:00 +12°C° 0 mm 2 mps 761 mmHg 90%
    08:00 +12°C° 0 mm 2 mps 761 mmHg 88%
    09:00 +13°C° 0 mm 2 mps 762 mmHg 86%
    10:00 +14°C° 0 mm 2 mps 761 mmHg 80%
    11:00 +16°C° 0 mm 1 mps 761 mmHg 74%
    12:00 +19°C° 0 mm 1 mps 761 mmHg 69%
    13:00 +19°C° 0 mm 1 mps 761 mmHg 67%
    14:00 +19°C° 0 mm 1 mps 760 mmHg 66%
    15:00 +19°C° 0 mm 2 mps 760 mmHg 65%
    16:00 +17°C° 0 mm 2 mps 760 mmHg 73%
    17:00 +15°C° 0 mm 1 mps 760 mmHg 80%
    18:00 +13°C° 0 mm 1 mps 760 mmHg 88%
    19:00 +13°C° 0 mm 2 mps 760 mmHg 88%
    20:00 +12°C° 0 mm 2 mps 761 mmHg 88%
    21:00 +12°C° 0 mm 2 mps 761 mmHg 89%
    22:00 +12°C° 0 mm 2 mps 760 mmHg 88%
    23:00 +10°C° 0 mm 2 mps 760 mmHg 88%

    24 January, Wednesday

    Time Temperature Precipitation Wind Pressure Humidity
    00:00 +10°C° 0 mm 2 mps 760 mmHg 88%
    01:00 +10°C° 0 mm 2 mps 760 mmHg 88%
    02:00 +9°C° 0 mm 2 mps 759 mmHg 88%
    03:00 +9°C° 0 mm 2 mps 759 mmHg 88%
    04:00 +9°C° 0 mm 2 mps 759 mmHg 88%
    05:00 +9°C° 0 mm 2 mps 758 mmHg 88%
    06:00 +9°C° 0 mm 2 mps 758 mmHg 89%
    07:00 +9°C° 0 mm 2 mps 758 mmHg 88%
    08:00 +10°C° 0 mm 2 mps 758 mmHg 86%
    09:00 +10°C° 0 mm 2 mps 758 mmHg 85%
    10:00 +13°C° 0 mm 2 mps 758 mmHg 77%
    11:00 +15°C° 0 mm 2 mps 758 mmHg 70%
    12:00 +16°C° 0 mm 3 mps 757 mmHg 62%
    13:00 +16°C° 0 mm 3 mps 757 mmHg 61%
    14:00 +16°C° 0 mm 3 mps 756 mmHg 60%
    15:00 +17°C° 0 mm 4 mps 756 mmHg 59%
    16:00 +14°C° 0 mm 4 mps 756 mmHg 63%
    17:00 +13°C° 0 mm 3 mps 755 mmHg 68%
    18:00 +12°C° 0 mm 3 mps 755 mmHg 73%
    19:00 +12°C° 0.1 mm 3 mps 756 mmHg 73%
    20:00 +12°C° 0.1 mm 3 mps 756 mmHg 73%
    21:00 +12°C° 0.1 mm 4 mps 756 mmHg 74%
    22:00 +11°C° 0.1 mm 4 mps 756 mmHg 75%
    23:00 +11°C° 0.1 mm 4 mps 756 mmHg 76%

    25 January, Thursday

    Time Temperature Precipitation Wind Pressure Humidity
    00:00 +10°C° 0.1 mm 5 mps 755 mmHg 76%
    01:00 +10°C° 0.2 mm 4 mps 755 mmHg 80%
    02:00 +10°C° 0.2 mm 4 mps 755 mmHg 84%
    03:00 +10°C° 0.2 mm 4 mps 755 mmHg 88%
    04:00 +10°C° 0.6 mm 4 mps 755 mmHg 89%
    05:00 +9°C° 0.6 mm 5 mps 755 mmHg 91%
    06:00 +9°C° 0.6 mm 5 mps 755 mmHg 92%
    07:00 +9°C° 0.6 mm 5 mps 755 mmHg 93%
    08:00 +11°C° 0.6 mm 4 mps 755 mmHg 95%
    09:00 +11°C° 0.6 mm 4 mps 755 mmHg 96%
    10:00 +10°C° 0.4 mm 5 mps 755 mmHg 90%
    11:00 +12°C° 0.4 mm 5 mps 755 mmHg 84%
    12:00 +13°C° 0.4 mm 6 mps 755 mmHg 78%
    13:00 +11°C° 0.4 mm 7 mps 754 mmHg 79%
    14:00 +10°C° 0.4 mm 8 mps 754 mmHg 81%
    15:00 +10°C° 0.4 mm 8 mps 754 mmHg 82%
    16:00 +8°C° 0.5 mm 9 mps 754 mmHg 86%
    17:00 +7°C° 0.5 mm 9 mps 754 mmHg 90%
    18:00 +6°C° 0.5 mm 9 mps 755 mmHg 94%
    19:00 +5°C° 0.2 mm 9 mps 755 mmHg 93%
    20:00 +5°C° 0.2 mm 9 mps 756 mmHg 93%
    21:00 +4°C° 0.2 mm 8 mps 756 mmHg 93%
    22:00 +2°C° 0.1 mm 8 mps 756 mmHg 93%
    23:00 +2°C° 0.1 mm 8 mps 757 mmHg 93%

    26 January, Friday

    Time Temperature Precipitation Wind Pressure Humidity
    00:00 +1°C° 0.1 mm 8 mps 757 mmHg 93%
    01:00 +1°C° 0.2 mm 8 mps 757 mmHg 93%
    02:00 +2°C° 0.2 mm 7 mps 757 mmHg 93%
    03:00 +2°C° 0.2 mm 7 mps 757 mmHg 92%
    04:00 0°C° 0.3 mm 7 mps 758 mmHg 92%
    05:00 0°C° 0.3 mm 7 mps 758 mmHg 92%
    06:00 0°C° 0.3 mm 7 mps 759 mmHg 92%
    07:00 +2°C° 0.5 mm 7 mps 759 mmHg 91%
    08:00 +3°C° 0.5 mm 7 mps 760 mmHg 90%
    09:00 +4°C° 0.5 mm 7 mps 760 mmHg 89%
    10:00 +5°C° 0.8 mm 7 mps 761 mmHg 87%
    11:00 +6°C° 0.8 mm 7 mps 761 mmHg 85%
    12:00 +7°C° 0.8 mm 6 mps 761 mmHg 83%
    13:00 +6°C° 0.7 mm 7 mps 761 mmHg 83%
    14:00 +6°C° 0.7 mm 7 mps 761 mmHg 83%
    15:00 +6°C° 0.7 mm 7 mps 761 mmHg 84%
    16:00 +5°C° 0.7 mm 7 mps 762 mmHg 87%
    17:00 +5°C° 0.7 mm 7 mps 763 mmHg 91%
    18:00 +4°C° 0.7 mm 7 mps 764 mmHg 94%
    19:00 +4°C° 0.4 mm 7 mps 764 mmHg 94%
    20:00 +4°C° 0.4 mm 7 mps 765 mmHg 94%
    21:00 +4°C° 0.4 mm 7 mps 765 mmHg 93%
    22:00 +4°C° 0.3 mm 7 mps 766 mmHg 93%
    23:00 +4°C° 0.3 mm 7 mps 766 mmHg 93%
    Show more